Regional Weather Roundup
Issued by NWS

Home | Current Version | Previous Version | Text Only | Print | Product List | Glossary Off
Versions: 1 2 3 4 5 6 7 8 9 10 11 12 13 14 15 16 17 18 19 20 21 22 23 24 25 26 27 28 29 30 31 32 33 34 35 36 37 38 39 40 41 42 43 44 45 46 47 48 49 50

000
ASUS45 KABQ 240201
RWRNM
NEW MEXICO REGIONAL WEATHER ROUNDUP
NATIONAL WEATHER SERVICE ALBUQUERQUE NM
800 PM MDT SUN JUL 23 2017

NOTE: "FAIR" MEANS FEW OR NO CLOUDS BELOW 12,000 FEET AGL WITH NO
       SIGNIFICANT WEATHER OR OBSTRUCTIONS TO VISION.

      THIS PRODUCT IS RELEASED AS TWO VERSIONS.  ONE VERSION NEAR
      THE TOP OF THE HOUR CONTAINING PRELIMINARY DATA FROM ALBUQUERQUE
      AND OTHER STATIONS.  A FINAL VERSION WITH ADDITIONAL DATA IS
      ISSUED ABOUT 10 MINUTES AFTER THE HOUR.

NMZ501-503-504-510>518-240300-
NORTHWEST PLATEAU/NORTHCENTRAL MOUNTAINS

CITY           SKY/WX    TMP DP  RH WIND       PRES   REMARKS
FARMINGTON     MOCLDY    82  47  29 E12       30.08R
LOS ALAMOS     FAIR      74  44  35 S12G17    30.28R
SANTA FE       MOCLDY    74  53  48 SE18G28   30.20S
TAOS           MOCLDY    73  48  40 SE13      30.29R
ANGEL FIRE     CLOUDY    61  51  71 E14       30.42R

$$
NMZ402-403-502-505>509-240300-
WESTCENTRAL MOUNTAINS/SOUTHWEST MOUNTAINS

CITY           SKY/WX    TMP DP  RH WIND       PRES   REMARKS
GALLUP         MOCLDY    81  49  32 SW5       30.15R
GRANTS         FAIR      79  46  31 E14G20    30.20S
SILVER CITY    MOCLDY    75  61  60 CALM      30.14R

$$
NMZ407-409-411-412-240300-
SOUTHERN DESERTS

CITY           SKY/WX    TMP DP  RH WIND       PRES   REMARKS
DEMING         CLOUDY    75  67  76 SW10      30.07R
LAS CRUCES     FAIR      79  61  53 SE8       30.06S
HOLLOMAN AFB   FAIR      85  57  38 N3        30.04R
ALAMOGORDO     FAIR      82  55  39 CALM      30.05R
T OR C         FAIR      79  56  45 SW9       30.06S

$$
NMZ519>523-240300-
CENTRAL VALLEYS/CENTRAL HIGHLANDS

CITY           SKY/WX    TMP DP  RH WIND       PRES   REMARKS
ALBUQUERQUE    MOCLDY    79  54  41 E18G25    30.13S
DOUBLE EAGLE   MOCLDY    79  54  41 SE15      30.17R
MORIARTY ARPT  CLOUDY    73  57  57 E15       30.24R
CLINES CORNERS MOCLDY    66  54  65 E13       30.29S
BELEN          NOT AVBL
SOCORRO        FAIR      81  53  37 SE7       30.08R

$$
NMZ524>526-539-540-240300-
SOUTHCENTRAL MOUNTAINS

CITY           SKY/WX    TMP DP  RH WIND       PRES   REMARKS
RUIDOSO        MOCLDY    66  57  72 S10       30.27R

$$
NMZ527>531-240300-
NORTHEAST HIGHLANDS/NORTHEAST PLAINS

CITY           SKY/WX    TMP DP  RH WIND       PRES   REMARKS
LAS VEGAS      MOCLDY    60  55  83 N12       30.29S
RATON          LGT RAIN  62  59  90 W13       30.25F
CLAYTON        FAIR      74  54  49 NE7       30.13R

$$
NMZ532>537-240300-
EASTCENTRAL PLAINS

CITY           SKY/WX    TMP DP  RH WIND       PRES   REMARKS
SANTA ROSA     FAIR      74  54  48 CALM      30.11S
TUCUMCARI      FAIR      76  65  68 W6        30.05R
CANNON AFB     FAIR      75  66  72 N9        30.09R
CLOVIS AIRPORT FAIR      76  67  73 NW5       30.08R

$$
NMZ028-029-538-240300-
SOUTHEAST PLAINS

CITY           SKY/WX    TMP DP  RH WIND       PRES   REMARKS
ROSWELL        MOCLDY    80  61  52 E9        30.03R
ARTESIA        FAIR      84  64  51 SE12      30.02R
CARLSBAD       FAIR      78  67  68 S17       29.99R
HOBBS          MOCLDY    82  59  44 SE8       30.04R


$$




USA.gov is the U.S. government's official web portal to all federal, state and local government web resources and services.